Regional Weather Roundup
Issued by NWS Newport/Morehead, NC

Current Version | Previous Version | Text Only | Print | Product List | Glossary On
Versions: 1 2 3 4 5 6 7 8 9 10 11 12 13 14 15 16 17 18 19 20 21 22 23 24 25 26 27 28 29 30 31 32 33 34 35 36 37 38 39 40 41 42 43 44 45 46 47 48 49 50
000 ASUS42 KMHX 251825 RWRMHX WEATHER ROUNDUP FOR EASTERN NORTH CAROLINA NATIONAL WEATHER SERVICE NEWPORT/MOREHEAD CITY NC 200 PM EDT MON SEP 25 2017 NOTE: "FAIR" INDICATES FEW OR NO CLOUDS BELOW 12,000 FEET WITH NO SIGNIFICANT WEATHER AND/OR OBSTRUCTIONS TO VISIBILITY NCZ015>017-031-032-045>047-102-103-251900- NORTH COAST CITY SKY/WX TMP DP RH WIND PRES REMARKS EDENTON CLOUDY 79 69 73 NE9G16 29.96F ELIZABETH CITY CLOUDY 77 71 82 NE17 29.96F KITTY HAWK CLOUDY 72 66 82 NE10G18 29.92F MANTEO CLOUDY 73 69 85 NE15 29.93F $$ NCZ045>047-081-094-103-104-251900- CENTRAL COAST CITY SKY/WX TMP DP RH WIND PRES REMARKS FRISCO CLOUDY 80 73 79 NE16G31 29.87F $$ NCZ095-097-098-100-101-251900- SOUTHERN COAST CITY SKY/WX TMP DP RH WIND PRES REMARKS BEAUFORT CLOUDY 80 74 81 N15G25 29.86F CEDAR ISLAND NOT AVBL JACKSONVILLE PTSUNNY 82 72 71 N12 29.88F PINEY ISLAND FLURRIES N/A N/A N/A N21 29.87F WILMINGTON CLOUDY 80 71 74 N9 29.88F $$ NCZ011>013-027>030-043-044-078>080-089-090>093-098-251900- COASTAL PLAIN CITY SKY/WX TMP DP RH WIND PRES REMARKS AHOSKIE MOSUNNY 79 68 69 NE10G20 29.96F CLINTON PTSUNNY 77 70 80 N6 29.94F ELIZABETHTOWN NOT AVBL GOLDSBORO CLOUDY 78 73 85 NE10 29.93F GREENVILLE CLOUDY 79 70 73 NE9 29.96F HAVELOCK CLOUDY 81 72 74 NE15 29.89F KENANSVILLE CLOUDY 77 70 78 N7 29.93F KINSTON CLOUDY 77 68 73 NE9 29.94F NEW BERN CLOUDY 80 71 74 N15 29.91F RICHLANDS PTSUNNY 81 71 71 N9 29.90F ROCKY MOUNT PTSUNNY 81 68 64 NE10G26 29.96F WASHINGTON CLOUDY 80 70 72 NE15 29.93F WHITEVILLE CLOUDY 75 68 77 NE5 29.92F $$ AMZ130-135-150-152-154-156-158-170-250-252-270-ANZ085-086-088-633-658-670-251900- MARINE OBSERVATIONS STATION/POSITION TIME TEMP WIND PRES WAVE SWELL AIR SEA DIR/SP/G HT/PER HT/PER (UTC) (F) (DEG/KT/KT) (MB) (FT/S) (FT/S) CHESAPEAKE LIGHT NOT AVBL 64 E VA BEACH 1750 71 70 40/ 16/ 19 1014.3 14/15 13/15 DUCK 1800 72 76 20/ 20/ 23 1013.4 2 E DUCK 1800 76 N/A 8/14 5/14 OREGON INLET 1800 74 76 20/ 19/ 23 1012.7 13E OREGON INLT 1748 75 N/A 11/14 11/14 HATTERAS CG 1800 76 77 30/ 20/ 26 1011.3 DIAMOND BUOY 1750 75 77 20/ 23/ 29 1009.8 14/14 13/14 CAPE LOOKOUT 1800 79 20/ 21/ 30 1010.3 BEAUFORT LAB 1800 78 75 20/ 15/ 19 1010.7 30 SE NEW RVR IN 1808 79 30/ 21/ 27 1009.7 30 SE NEW RVR IN NOT AVBL 27 SE WRIGHTSVLE 1808 79 80 50/ 19/ 29 1009.9 5 SE WRIGHTSVLE 1708 78 78 20/ 12/ 19 1011.5 225 S CAPE HAT 1750 80 81 360/ 39/ 51 994.0 22/12 16/12 41 SE CHARLESTON 1810 76 81 10/ 19/ 23 1010.6 $$

USA.gov is the U.S. government's official web portal to all federal, state and local government web resources and services.